Imperial, NE

2:47 AM MDT on July 31, 2016 (GMT -0600)
Imperial Municipal

Weather History for KIML - November, 2013

Change the Weather History Date:

Tuesday, November 12, 2013

  Actual Average Record
Temperature  
Mean Temperature 36 °F 39 °F  
Max Temperature 50 °F 53 °F 78 °F (2005)
Min Temperature 21 °F 26 °F -9 °F (1919)
Degree Days  
Heating Degree Days 29 26  
Month to date heating degree days 288 280  
Cooling Degree Days 0 0  
Month to date cooling degree days 0 0  
Year to date cooling degree days 1166 963  
Moisture  
Dew Point 26 °F    
Average Humidity 71    
Maximum Humidity 96    
Minimum Humidity 46    
Precipitation  
Precipitation 0.00 in 0.02 in 0.92 in (1909)
Sea Level Pressure  
Sea Level Pressure 30.68 in    
Wind  
Wind Speed 9 mph (South)    
Max Wind Speed 17 mph    
Max Gust Speed 23 mph    
Visibility 10 miles    
Events      
T = Trace of Precipitation, MM = Missing Value Source: NWS Daily Summary

Daily Weather History Graph

Daily Weather History Graph

Search for Another Location

Airport or City:

Trip Planner

Search our weather history database for the weather conditions in past years. The results will help you decide how hot, cold, wet, or windy it might be!

Date:

Astronomy

Nov. 12, 2013 Rise Set
Actual Time 6:29 AM MST 4:31 PM MST
Civil Twilight 6:00 AM MST 5:00 PM MST
Nautical Twilight 5:27 AM MST 5:33 PM MST
Astronomical Twilight 4:55 AM MST 6:05 PM MST
Moon 1:47 PM MST (11/12) 1:20 AM MST (11/12)
Length of Visible Light 10h 59m
Length of Day
10h 01m
Waxing Gibbous, 77% of the Moon is Illuminated
Nov 12
Waxing Gibbous
Nov 17
Full
Nov 25
Last Quarter
Dec 2
New
Dec 9
First Quarter

Hourly Weather History & Observations

Time (MST) Temp. Windchill Dew Point Humidity Pressure Visibility Wind Dir Wind Speed Gust Speed Precip Events Conditions
12:53 AM 25.0 °F - 21.9 °F 88% 30.82 in 10.0 mi Calm Calm - N/A   Overcast
1:53 AM 24.1 °F - 21.9 °F 91% 30.83 in 10.0 mi Calm Calm - N/A   Overcast
2:22 AM 21.2 °F 16.4 °F 19.4 °F 93% 30.71 in 10.0 mi South 3.5 mph - N/A   Scattered Clouds
2:42 AM 21.2 °F - 19.4 °F 93% 30.72 in 10.0 mi Calm Calm - N/A   Mostly Cloudy
2:53 AM 23.0 °F 17.0 °F 21.0 °F 92% 30.84 in 10.0 mi ESE 4.6 mph - N/A   Overcast
3:53 AM 25.0 °F 18.1 °F 21.9 °F 88% 30.83 in 10.0 mi South 5.8 mph - N/A   Overcast
4:53 AM 25.0 °F 17.1 °F 21.9 °F 88% 30.82 in 10.0 mi South 6.9 mph - N/A   Overcast
5:09 AM 24.8 °F 17.9 °F 21.2 °F 86% 30.71 in 10.0 mi SSW 5.8 mph - N/A   Overcast
5:53 AM 26.1 °F 19.4 °F 23.0 °F 88% 30.81 in 10.0 mi South 5.8 mph - N/A   Overcast
6:39 AM 24.8 °F 17.9 °F 21.2 °F 86% 30.69 in 10.0 mi South 5.8 mph - N/A   Scattered Clouds
6:53 AM 24.1 °F 16.0 °F 21.0 °F 88% 30.82 in 10.0 mi South 6.9 mph - N/A   Clear
7:53 AM 26.1 °F 15.6 °F 21.9 °F 84% 30.81 in 10.0 mi South 11.5 mph - N/A   Clear
8:53 AM 30.9 °F 22.2 °F 25.0 °F 79% 30.80 in 10.0 mi South 10.4 mph - N/A   Clear
9:53 AM 35.1 °F 26.9 °F 27.0 °F 72% 30.79 in 10.0 mi South 11.5 mph - N/A   Clear
10:53 AM 39.9 °F 32.5 °F 28.0 °F 63% 30.75 in 10.0 mi South 12.7 mph - N/A   Clear
11:53 AM 43.0 °F 37.2 °F 28.9 °F 58% 30.70 in 10.0 mi South 10.4 mph - N/A   Clear
12:53 PM 46.9 °F - 30.0 °F 52% 30.65 in 10.0 mi South 11.5 mph - N/A   Clear
1:53 PM 48.9 °F - 30.0 °F 48% 30.62 in 10.0 mi South 13.8 mph - N/A   Clear
2:53 PM 50.0 °F - 30.9 °F 48% 30.59 in 10.0 mi South 16.1 mph - N/A   Clear
3:53 PM 48.9 °F - 32.0 °F 52% 30.56 in 10.0 mi South 13.8 mph - N/A   Clear
4:53 PM 42.1 °F 36.6 °F 30.9 °F 65% 30.56 in 10.0 mi SSE 9.2 mph - N/A   Clear
5:53 PM 37.0 °F 30.4 °F 28.9 °F 73% 30.56 in 10.0 mi SSE 9.2 mph - N/A   Clear
6:53 PM 35.1 °F 27.9 °F 28.9 °F 78% 30.55 in 10.0 mi South 9.2 mph - N/A   Clear
7:53 PM 37.9 °F 30.0 °F 30.0 °F 73% 30.53 in 10.0 mi South 12.7 mph - N/A   Clear
8:53 PM 37.0 °F 29.8 °F 28.9 °F 73% 30.51 in 10.0 mi SSW 10.4 mph - N/A   Clear
9:53 PM 35.1 °F 28.6 °F 28.0 °F 76% 30.48 in 10.0 mi South 8.1 mph - N/A   Clear
10:53 PM 34.0 °F 26.6 °F 28.0 °F 79% 30.45 in 10.0 mi SSW 9.2 mph - N/A   Clear
11:53 PM 34.0 °F 27.2 °F 27.0 °F 75% 30.42 in 10.0 mi SSW 8.1 mph - N/A   Clear